sat.trackr.live / text

‹ back to catalog

SBIRS GEO-6 (USA 336)

NORAD 53355 · 2022-092A

PAYLOAD ACTIVE UNKNOWN

§ Identity

Operator
Country
US
Launch date
2022-08-04
Launch site
AFETR
Launch vehicle
Mass (kg)
RCS (m²)

Purposes: comms

External: N2YO · Heavens-Above · Gunter

§ Orbital elements

Epoch: 2026-05-25T04:24:13.466016Z

Period
1,436.10 min
Inclination
3.2961°
Eccentricity
0.0002062
Mean motion
1.00271304 rev/d
Perigee alt
35,778.0 km
Apogee alt
35,795.4 km
Semi-major
42,164.9 km
B*
0.0000e+0
RAAN
317.1396°
Arg perigee
96.3466°
Mean anomaly
34.3447°
Rev number
1,400

§ Raw data

SBIRS GEO-6 (USA 336)1 53355U 22092A   26145.18348919 -.00000298  00000+0  00000+0 0  99952 53355   3.2961 317.1396 0002062  96.3466  34.3447  1.00271304 14006

JSON: /api/v1/satellites/53355 · /tle

For live sub-satellite position, see the globe view (requires WebGL).

§ Visibility from observer

Set your observer location to see the next 7 days of passes ≥ 10°. The values pass through the URL so the page stays shareable.

No JS? Fill the form by hand. The geolocation button needs JavaScript.